Regional Weather Roundup
Issued by NWS Cleveland, OH

Home | Current Version | Previous Version | Text Only | Print | Product List | Glossary Off
Versions: 1 2 3 4 5 6 7 8 9 10 11 12 13 14 15 16 17 18 19 20 21 22 23 24 25 26 27 28 29 30 31 32 33 34 35 36 37 38 39 40 41 42 43 44 45 46 47 48 49 50

000
ASUS41 KCLE 241102
RWRCLE
OHIO REGIONAL WEATHER ROUNDUP
NATIONAL WEATHER SERVICE CLEVELAND, OH
600 AM EST FRI NOV 24 2017

NOTE: "FAIR" INDICATES FEW OR NO CLOUDS BELOW 12,000 FEET WITH NO
SIGNIFICANT WEATHER AND/OR OBSTRUCTIONS TO VISIBILITY.

OHZ001>008-015>018-024>027-034-035-043-044-241200-
   NORTHWEST OHIO

CITY           SKY/WX    TMP DP  RH WIND       PRES   REMARKS
DEFIANCE       CLEAR     31  23  72 S8        29.89F WCI  23
FINDLAY        CLEAR     32  24  72 S12       29.91F WCI  23
TOLEDO EXPRESS CLEAR     32  26  78 S6        29.89F WCI  26
TOLEDO EXEC    CLEAR     29  24  82 S7        29.91F WCI  22
LIMA           CLEAR     32  24  72 S10       29.91F WCI  24
$$

OHZ009>014-019>023-028>033-038-089-241200-
   NORTHEAST OHIO

CITY           SKY/WX    TMP DP  RH WIND       PRES   REMARKS
CLE-HOPKINS    CLEAR     34  24  67 S12       29.97F WCI  25
CLE-LAKEFRONT  CLEAR     33  23  66 S12       29.94F WCI  24
CUY CO. ARPT   NOT AVBL
LORAIN-ELYRIA  CLEAR     30  21  69 S8        29.95F WCI  22
ASHTABULA      CLEAR     31  24  75 S8        29.96S WCI  23
AKRON-CANTON   CLEAR     28  21  75 S6        29.97R WCI  22
WOOSTER        CLEAR     29  23  78 S5        29.97R WCI  24
MANSFIELD      CLEAR     29  23  78 S7        29.94S WCI  22
YOUNGSTOWN     CLEAR     30  22  72 S6        29.96S WCI  24
$$

OHZ042-051>053-060>062-070>072-077>081-241200-
  SOUTHWEST OHIO

CITY           SKY/WX    TMP DP  RH WIND       PRES   REMARKS
CINC-COVINGTON CLOUDY    32  24  72 S8        29.96F WCI  25
CINC-LUNKEN    CLOUDY    26  25  96 CALM      30.00F FOG
HAMILTON       CLOUDY    29  26  89 E5        29.99S WCI  24
DAYTON         CLOUDY    32  25  75 S8        29.95F WCI  25
WRIGHT-PAT AFB CLOUDY    29  24  83 SE6       29.96S WCI  22
DAYTON GENERAL CLOUDY    30  23  75 S8        29.96S WCI  22
WILMINGTON     CLEAR     31  24  75 S6        29.97S WCI  25
$$

OHZ036-037-039>041-045>050-054>059-063>069-073>076-082>088-241200-
  CENTRAL AND SOUTHEAST OHIO

CITY           SKY/WX    TMP DP  RH WIND       PRES   REMARKS
COLUMBUS       CLOUDY    29  24  82 CALM      29.98S
OSU AIRPORT    CLOUDY    30  25  81 S5        29.97S WCI  25
BOLTON FIELD   CLOUDY    28  24  82 S5        29.98F WCI  23
RICKENBACK AFB CLOUDY    27  23  84 S3        29.98F
NEWARK         CLOUDY    24  20  84 CALM      29.98F
MARION         CLEAR     30  23  75 S12       29.95F WCI  20
LANCASTER      CLOUDY    25  22  88 S3        29.99S
ZANESVILLE     CLOUDY    25  21  85 S6        30.00S WCI  18
NEW PHILLY     NOT AVBL
$$



USA.gov is the U.S. government's official web portal to all federal, state and local government web resources and services.